Temperature
16 17 17 17 17 18 20 22 24 24 25 26 26 26 25 23 23 20 19 19 18 19 18 18 18 17 17 17 17 17 17 17 16 16 16 16 16 16 16 16 16 16 16 15 15 15 16 15 15
16 16 17 17 18 18 20 22 23 24 25 25 25 25 25 22 21 20 19 18 18 18 18 18 17 17 17 17 17 17 17 16 16 16 16 16 16 16 16 16 16 16 16 15 15 15 15 15 15
15 16 17 18 18 19 21 23 24 24 25 24 24 24 23 21 20 19 19 18 18 18 18 18 17 17 17 17 17 17 16 16 16 16 16 16 16 16 16 16 16 16 15 15 15 15 15 15 15
15 16 17 18 18 20 22 23 24 24 24 24 24 23 21 20 19 19 18 18 17 17 17 17 17 17 17 17 16 16 16 16 16 16 16 16 16 16 16 16 16 16 15 15 15 15 15 15 15
15 16 17 17 18 21 22 23 24 23 23 23 23 22 19 19 19 18 18 17 17 17 17 17 17 17 16 16 16 16 16 16 16 16 16 16 15 15 16 16 15 15 15 15 15 15 15 15 15
15 16 17 17 19 21 22 23 23 23 23 23 22 21 18 18 18 18 18 17 17 17 17 17 16 16 16 16 16 16 16 16 16 16 15 15 15 15 15 15 15 15 15 15 15 15 15 15 15
15 15 16 18 19 20 21 22 22 21 21 22 22 20 18 18 18 17 17 17 16 16 16 16 16 16 16 16 16 16 16 16 16 16 15 15 15 15 15 15 15 15 15 15 15 15 15 14 14
14 15 16 17 18 19 21 21 21 21 21 21 21 19 17 17 17 17 17 17 16 16 16 16 15 15 15 15 15 15 15 15 15 15 15 15 15 15 15 15 15 15 14 14 14 14 14 14 14
13 14 15 17 17 18 19 20 20 20 20 20 19 18 17 16 16 16 16 16 16 15 15 15 15 15 15 15 15 15 15 15 15 15 15 15 15 15 15 15 14 14 14 14 14 14 14 14 14
13 13 15 17 17 18 18 18 18 19 18 19 18 17 16 16 16 16 16 15 15 15 15 15 15 15 15 15 15 15 15 15 15 15 15 14 14 14 14 14 14 14 14 14 14 14 14 14 13
13 13 15 16 16 17 17 17 17 17 16 17 16 15 15 15 15 15 15 15 15 15 15 14 15 15 15 15 15 15 15 14 14 14 14 14 14 14 14 14 14 14 13 13 13 13 13 13 13
13 14 15 15 15 15 16 16 16 16 16 16 16 15 15 14 14 14 14 14 14 14 14 14 14 14 14 14 14 14 14 14 14 14 14 14 14 14 14 14 14 14 13 13 13 13 13 13 13
12 13 14 14 14 14 15 15 15 15 15 15 15 14 14 14 14 14 14 14 14 14 14 14 14 14 14 14 14 14 14 14 14 14 14 14 14 14 14 13 13 13 13 13 13 13 13 13 13
12 13 13 14 14 14 14 14 14 14 14 14 14 14 14 13 14 14 14 14 14 14 13 14 14 14 14 14 14 14 14 14 14 14 14 14 14 13 13 13 13 13 13 13 13 12 12 12 12
11 11 12 13 14 14 13 13 13 14 14 14 14 13 13 13 13 13 13 13 13 13 13 13 13 13 13 13 14 14 14 13 13 14 14 13 13 13 13 13 13 13 12 12 12 12 12 12 12
11 11 11 12 13 13 13 11 13 14 14 13 13 13 13 13 13 12 12 13 13 13 13 13 13 13 13 13 13 13 13 13 13 13 13 13 13 13 13 13 12 12 12 12 12 12 12 12 12
10 10 10 11 13 13 12 11 12 13 13 13 13 12 12 12 12 12 12 12 12 12 12 12 13 13 13 13 13 13 13 13 13 13 13 13 13 13 13 12 12 12 12 12 12 12 12 12 11
9 10 10 11 12 12 11 11 12 13 13 13 12 12 12 12 12 11 12 12 12 12 12 12 12 12 12 12 12 12 12 12 12 12 13 13 13 12 12 12 12 12 12 12 12 12 12 11 11
9 10 10 11 12 11 11 11 11 12 12 12 12 12 11 11 11 11 11 11 11 11 11 11 12 11 11 12 12 12 11 12 12 12 12 12 12 12 12 12 12 12 12 12 12 11 11 11 11
9 9 10 10 11 11 10 10 11 11 11 11 11 11 11 11 11 11 11 11 11 11 11 11 11 11 11 11 11 11 11 11 11 11 12 12 12 12 12 12 12 12 12 11 11 11 11 11 11
9 9 9 10 10 11 10 10 11 11 11 11 11 11 10 10 11 11 10 10 10 11 11 11 11 11 11 11 10 11 10 10 11 11 11 11 11 11 12 12 12 12 11 11 11 11 11 11 10
8 10 10 9 9 9 10 8 10 10 11 11 11 11 10 10 10 10 10 10 10 10 10 10 10 10 10 10 10 10 10 10 10 10 10 10 10 11 11 11 11 11 11 11 11 11 11 10 10
8 10 10 9 8 8 9 9 9 11 10 10 10 10 10 9 10 10 10 10 10 10 10 10 10 10 10 10 10 10 10 10 10 10 10 10 10 10 10 10 11 11 11 10 10 10 10 10 10
9 9 9 9 8 7 9 9 9 9 10 10 10 10 10 9 9 9 9 9 9 9 9 9 9 9 9 10 10 10 10 10 10 9 9 9 9 10 10 10 10 10 10 10 10 10 10 10 9
7 7 7 7 7 8 10 9 9 9 10 10 10 10 9 9 9 9 9 9 9 9 9 9 9 9 9 9 9 9 9 9 9 9 9 9 9 9 10 9 9 9 10 9 9 9 9 9 9
7 7 6 7 7 8 9 8 9 10 10 10 10 9 9 8 8 8 8 8 8 9 9 9 9 8 8 8 8 8 9 9 9 9 9 9 9 9 9 9 9 9 9 9 9 9 9 9 9
6 6 7 7 7 7 8 9 9 9 9 9 9 9 8 8 8 8 7 8 8 8 8 8 8 8 8 8 8 8 8 8 8 8 8 8 8 8 8 8 8 8 8 8 8 8 8 8 8
6 7 6 6 7 7 8 9 8 8 8 8 8 8 8 7 7 7 7 7 7 7 7 7 7 7 7 7 7 7 7 7 7 7 8 8 8 8 8 8 8 8 8 8 8 8 8 8 7
5 6 6 6 6 7 7 8 9 8 8 8 8 8 7 7 6 6 6 6 7 7 7 7 7 7 6 6 7 7 7 7 7 7 7 7 7 7 7 7 7 7 7 7 7 7 7 7 7
5 5 5 5 5 6 6 7 8 8 8 8 7 7 7 6 6 6 5 5 6 6 6 6 6 6 6 6 6 6 6 6 6 6 6 7 7 7 6 6 6 6 6 6 6 6 6 6 6
Wind_Speed
13 13 7 3 3 5 9 7 6 3 3 1 3 2 3 5 4 7 6 10 14 15 16 16 16 15 15 14 14 13 13 13 13 13 13 13 13 14 14 14 14 15 15 15 15 15 15 15 15
12 9 4 4 5 7 8 9 8 4 1 2 1 1 2 5 7 8 7 11 13 15 16 15 16 15 15 14 14 13 13 13 13 13 13 13 13 13 14 14 14 14 14 14 14 14 14 14 14
10 8 4 4 6 9 6 5 5 3 3 2 1 2 3 4 6 6 8 12 12 13 15 16 16 15 15 14 14 13 13 13 13 12 12 12 12 13 13 13 14 14 14 14 14 14 14 13 12
5 4 4 6 13 10 7 5 3 3 4 3 2 4 4 5 4 7 11 11 12 12 15 16 16 15 15 14 14 13 13 12 12 12 12 12 12 12 12 12 12 13 13 13 13 13 13 12 11
4 4 6 9 15 10 7 5 3 2 4 4 3 3 4 5 8 10 9 10 11 12 15 16 16 15 15 14 14 13 13 12 12 11 11 12 12 12 12 11 12 12 12 12 12 12 11 11 10
3 4 7 12 13 10 8 5 3 4 3 3 4 3 3 5 7 8 8 8 10 11 13 15 15 15 14 14 13 12 12 12 11 11 10 11 11 11 11 11 11 11 11 11 11 11 10 10 9
4 5 10 12 11 10 8 5 4 4 3 2 1 2 5 5 5 6 7 8 9 11 12 12 13 13 13 13 13 12 12 12 11 11 10 11 11 11 11 11 11 11 11 10 10 10 9 9 8
4 4 9 12 11 9 5 3 3 3 3 1 1 3 5 5 4 5 6 8 9 9 9 9 10 11 11 11 12 12 12 11 11 11 11 11 10 10 11 10 10 10 10 10 9 9 8 7 6
4 5 11 11 9 6 3 4 2 2 1 1 2 4 6 8 6 6 6 6 7 8 7 7 7 8 10 10 11 12 12 11 11 10 11 10 9 9 10 10 10 10 10 9 9 8 8 6 4
5 8 11 7 5 6 4 3 3 2 2 1 3 7 9 8 6 6 7 7 6 7 6 6 6 6 7 8 10 10 9 10 9 9 10 9 8 8 9 10 10 10 9 8 8 8 7 6 4
6 9 8 7 5 6 5 4 3 3 4 1 3 6 6 6 6 5 6 6 6 6 6 5 5 6 6 5 6 6 7 8 8 9 8 7 7 8 8 8 7 8 8 7 7 7 6 6 5
7 9 9 7 4 5 6 5 4 5 4 1 3 6 6 6 7 6 5 5 5 5 5 5 5 5 5 4 4 5 5 5 6 7 7 6 5 5 6 6 7 7 6 5 5 4 5 5 5
10 9 9 7 5 5 5 6 5 5 4 1 3 4 5 5 5 4 4 5 5 5 5 5 5 5 4 3 3 4 4 4 5 6 6 6 5 4 4 5 6 6 6 5 3 3 3 2 2
7 7 8 8 7 5 4 6 5 5 2 2 3 4 4 4 4 4 4 4 5 5 4 4 5 5 4 3 2 2 3 4 5 4 5 5 5 4 3 3 3 4 5 4 3 3 2 1 2
7 7 8 9 7 6 4 6 7 5 3 4 4 4 5 4 3 4 3 4 4 4 4 4 4 4 4 4 3 3 3 4 4 4 4 4 5 5 4 3 3 3 4 3 2 3 3 1 1
7 7 7 7 8 6 5 7 5 4 4 4 3 4 4 3 4 3 2 2 3 4 5 5 4 4 4 3 2 3 3 3 3 4 4 3 4 5 4 3 3 4 4 3 2 2 1 1 0
5 7 7 6 7 6 6 6 6 5 6 4 4 4 3 3 3 2 2 2 3 4 4 5 4 4 4 4 3 3 3 3 3 3 3 3 3 4 4 3 3 4 3 3 2 1 2 1 0
5 6 6 7 6 5 6 6 5 5 5 5 4 5 3 3 2 2 2 2 2 3 4 4 4 4 4 3 2 2 2 2 3 2 3 3 3 3 3 3 3 4 2 2 2 2 1 1 1
6 8 8 7 4 4 7 6 5 5 4 5 4 4 4 3 3 2 2 2 2 3 3 4 4 3 3 3 3 2 2 1 1 2 2 3 3 3 3 3 3 3 3 3 3 2 2 1 1
7 8 7 5 4 4 4 6 6 4 4 4 4 3 3 3 3 3 3 2 2 2 3 4 4 3 3 2 2 2 2 2 1 1 1 2 3 3 3 3 3 3 3 3 3 2 2 1 1
7 5 5 4 4 5 4 4 5 5 5 5 5 4 3 3 3 3 3 3 3 2 2 3 3 3 3 3 2 2 2 1 1 1 0 1 2 2 3 3 3 3 3 3 3 3 3 2 2
6 4 4 3 2 3 3 3 5 6 6 6 5 5 4 3 2 3 3 3 3 2 1 3 3 3 3 3 3 4 3 2 1 1 1 0 1 2 2 3 3 3 2 3 4 4 3 3 2
4 5 5 5 4 3 4 3 4 6 6 6 5 4 4 3 2 2 3 3 3 2 2 2 3 3 3 3 3 3 2 2 1 2 1 1 0 1 2 2 2 2 2 2 3 3 3 3 3
5 4 4 3 2 4 5 4 3 4 5 5 4 4 4 4 3 2 3 3 2 2 2 2 3 3 2 2 3 3 3 2 3 3 2 2 1 1 1 2 2 2 3 2 2 3 4 3 3
3 0 0 1 3 4 3 3 3 4 4 4 5 4 4 3 4 3 3 2 2 2 2 3 3 2 2 2 2 2 2 2 3 3 3 2 2 1 2 2 2 2 3 4 3 3 3 3 3
3 2 1 2 3 1 1 3 2 4 4 4 4 4 4 3 2 3 2 2 2 2 2 2 3 2 2 2 2 2 2 2 1 2 2 2 2 2 2 1 2 2 2 3 3 2 3 2 3
2 2 3 2 2 1 3 3 2 2 3 3 4 4 4 3 3 3 3 3 2 2 1 2 2 2 1 1 1 1 1 1 1 2 1 1 1 1 2 2 2 2 2 2 3 2 2 2 3
2 2 2 1 1 2 3 4 3 3 3 3 3 4 4 3 3 3 2 2 2 1 1 1 1 2 1 1 1 0 1 1 1 2 2 2 2 1 2 2 2 2 2 2 3 3 2 3 3
1 1 2 2 1 1 2 2 1 3 3 3 2 2 3 3 3 2 1 2 1 1 1 0 1 1 1 1 1 1 1 1 1 1 1 1 2 2 3 2 2 2 2 2 3 3 3 3 3
1 2 1 1 3 2 2 2 2 3 3 3 2 1 2 2 2 1 1 1 1 1 0 1 1 1 1 0 0 0 1 1 1 1 1 1 1 1 2 2 2 3 2 3 3 3 3 3 3
Wind_Direction
301 281 257 249 236 230 238 237 245 228 221 310 357 354 10 31 48 112 136 120 121 127 132 137 136 134 133 131 127 124 119 116 114 110 108 109 108 107 106 102 99 97 95 93 93 91 90 88 87
291 280 257 235 230 226 231 224 236 230 145 80 10 311 58 64 70 107 122 119 123 126 132 135 135 134 134 133 131 128 125 122 118 113 111 110 109 109 107 104 102 100 98 96 94 92 93 91 90
276 264 246 229 229 228 229 211 204 182 139 117 104 23 41 75 94 116 117 123 121 125 128 131 134 134 134 135 134 131 130 127 122 117 115 113 109 109 110 108 106 104 102 100 98 95 94 94 92
270 235 239 238 237 233 241 244 189 156 155 144 136 97 70 65 88 111 119 125 126 125 123 132 134 135 136 136 135 134 132 130 126 122 119 117 112 109 109 112 111 109 107 104 101 99 97 95 94
250 237 223 232 240 240 249 268 251 197 171 163 174 120 93 64 83 106 125 127 126 123 124 134 136 136 138 138 137 136 134 132 128 124 122 121 117 114 112 113 115 114 112 109 106 104 101 99 96
243 236 225 229 234 234 235 256 267 233 192 182 178 138 118 106 99 116 124 123 121 120 122 133 136 137 137 137 138 138 135 134 131 129 127 126 122 120 118 118 120 119 116 114 112 109 105 103 99
246 243 237 240 238 233 230 228 224 254 214 193 213 139 138 120 105 115 123 121 115 116 122 130 135 137 138 139 140 140 139 139 137 134 133 133 130 128 126 125 123 125 123 120 117 114 112 109 103
267 263 242 240 242 238 240 248 222 244 244 211 172 136 144 126 114 116 116 116 113 115 122 133 138 139 139 141 143 141 141 142 141 139 139 140 139 138 137 132 130 130 130 127 125 122 120 119 114
264 243 236 233 243 248 250 268 280 308 282 298 31 74 105 116 117 111 104 101 112 118 124 131 135 138 140 145 144 143 143 144 142 142 144 145 145 144 141 140 138 136 135 135 135 136 136 135 138
222 231 235 244 260 271 271 275 301 285 276 229 63 73 100 116 124 129 131 130 129 131 134 138 136 130 137 147 145 150 151 152 152 151 154 158 150 140 130 137 143 144 141 143 150 154 154 157 167
227 237 243 257 277 284 275 273 293 273 256 229 127 122 121 134 140 148 146 143 136 140 129 129 128 129 130 135 148 149 153 157 156 160 162 146 128 125 127 129 136 143 148 154 165 175 180 176 170
245 244 250 258 274 285 275 266 254 262 270 235 134 139 150 162 161 162 158 145 141 136 131 127 123 121 122 124 140 146 148 150 154 162 158 139 132 133 145 149 161 164 165 165 179 186 175 172 171
244 243 247 262 265 269 287 267 252 265 289 266 126 140 161 165 163 163 160 151 145 136 132 127 118 120 121 117 125 134 138 140 143 149 151 144 138 145 148 151 163 167 158 168 180 162 145 139 131
242 249 255 257 246 247 256 277 267 248 245 207 165 161 157 161 161 153 150 152 146 141 137 131 129 124 120 112 115 118 125 128 129 132 136 143 141 136 141 139 147 141 150 171 162 138 117 114 92
251 248 250 248 237 224 234 265 250 244 217 213 187 175 159 148 139 138 142 153 151 146 134 131 134 126 122 118 117 116 118 120 125 129 134 139 136 137 139 135 143 141 146 142 120 112 103 99 78
233 232 232 235 229 219 213 240 239 231 217 218 190 182 154 130 114 104 99 133 141 143 140 145 143 134 128 121 113 111 117 115 116 117 125 131 133 139 135 134 150 142 134 124 125 131 120 123 120
213 222 226 233 221 214 223 232 235 231 210 208 185 173 156 136 120 104 97 91 144 147 144 149 141 139 133 124 120 118 113 112 112 118 120 130 136 139 137 144 143 135 129 139 153 145 138 144 172
210 219 226 235 221 214 223 234 234 230 188 192 182 168 164 151 135 124 120 112 125 143 139 141 142 136 132 129 125 113 99 98 98 103 126 134 137 145 135 140 148 141 141 150 149 148 141 151 163
248 236 238 251 258 242 225 235 238 224 185 182 181 165 168 171 145 125 104 96 97 132 138 140 141 136 134 142 147 145 146 133 111 104 121 144 151 151 146 152 148 147 165 176 169 158 156 158 133
252 244 243 253 265 247 228 243 241 213 183 177 179 165 169 170 148 138 118 106 100 120 142 143 146 145 145 147 153 161 152 163 156 124 127 140 153 162 161 157 161 161 166 166 163 150 159 178 167
255 246 244 246 273 241 226 252 218 194 178 184 179 163 170 186 169 154 147 137 115 98 152 157 154 152 152 142 134 134 127 118 116 160 169 146 153 149 150 155 158 162 164 175 177 170 166 187 217
255 256 253 240 231 246 222 236 223 191 187 188 179 166 166 188 185 158 152 140 130 117 142 142 140 139 148 155 160 168 168 175 209 178 173 166 140 129 148 153 161 169 176 183 186 180 173 166 201
262 274 261 245 236 271 240 220 233 181 193 191 177 165 168 182 181 158 145 142 134 124 131 148 141 140 151 155 159 164 159 171 161 152 155 207 189 145 149 161 168 174 171 183 186 182 177 173 182
281 273 272 242 203 242 228 207 225 194 196 180 170 169 179 178 169 165 136 130 123 118 131 148 146 151 159 161 161 169 174 173 167 171 184 204 212 183 177 180 181 183 175 183 197 184 182 190 187
320 312 137 215 210 233 193 197 229 186 178 176 174 170 168 166 151 143 126 129 144 137 144 162 158 155 166 170 180 186 191 189 191 193 195 202 208 210 209 199 202 204 190 183 185 186 190 186 185
265 245 218 225 218 246 194 212 226 147 138 140 142 138 122 119 122 115 104 108 129 130 145 157 164 163 169 175 190 200 199 200 215 214 206 209 212 222 199 197 200 211 199 184 177 189 196 187 191
264 243 287 288 264 239 219 210 190 89 103 132 138 135 134 127 110 90 73 61 59 89 142 160 160 161 174 173 167 207 212 198 210 226 221 210 208 221 195 205 202 204 197 184 170 187 198 196 204
281 280 289 256 261 233 223 216 207 187 183 152 162 164 158 142 102 83 76 66 43 41 55 137 166 168 172 160 173 236 231 219 200 207 211 203 198 195 185 199 206 194 188 184 172 185 201 205 209
264 258 278 268 256 252 240 237 21 174 173 163 154 145 147 137 126 120 95 76 68 42 39 146 166 169 174 182 180 202 240 233 206 206 214 206 202 191 192 204 206 199 195 187 186 197 202 209 215
231 238 228 223 264 251 250 255 28 77 113 122 122 108 108 124 129 128 104 70 57 75 56 79 130 150 151 130 138 209 252 220 196 197 206 193 195 191 193 205 211 213 211 200 191 203 209 211 221
Height
1506 1508 1509 1512 1514 1513 1508 1496 1488 1487 1487 1488 1489 1490 1492 1496 1501 1513 1512 1511 1512 1514 1517 1520 1522 1524 1526 1528 1530 1532 1533 1534 1536 1537 1538 1539 1541 1542 1542 1543 1544 1545 1545 1546 1546 1547 1547 1547 1548
1506 1508 1511 1511 1512 1513 1503 1492 1489 1487 1487 1489 1491 1492 1494 1500 1503 1507 1510 1512 1513 1514 1517 1519 1522 1525 1527 1529 1531 1533 1534 1535 1537 1538 1539 1540 1542 1543 1544 1544 1545 1546 1546 1547 1547 1548 1548 1549 1549
1505 1507 1510 1507 1505 1502 1496 1486 1485 1485 1487 1490 1492 1494 1497 1503 1506 1508 1510 1512 1513 1515 1517 1520 1523 1525 1527 1530 1532 1533 1535 1536 1538 1539 1540 1541 1542 1543 1545 1545 1546 1547 1547 1548 1548 1549 1549 1550 1551
1506 1508 1507 1505 1499 1491 1488 1484 1483 1485 1488 1491 1493 1496 1501 1505 1506 1508 1510 1512 1514 1516 1517 1520 1523 1525 1528 1530 1532 1534 1535 1537 1538 1540 1541 1542 1543 1544 1545 1546 1547 1547 1548 1549 1550 1550 1551 1551 1552
1505 1505 1504 1501 1494 1488 1485 1484 1484 1485 1488 1491 1493 1497 1502 1506 1506 1508 1511 1513 1514 1516 1518 1520 1523 1526 1528 1530 1532 1534 1536 1537 1539 1540 1541 1543 1544 1545 1546 1547 1547 1548 1549 1550 1550 1551 1552 1552 1553
1504 1501 1501 1498 1490 1486 1484 1485 1485 1485 1488 1491 1493 1497 1503 1506 1506 1509 1511 1514 1515 1516 1518 1521 1523 1526 1528 1530 1532 1534 1536 1537 1539 1540 1542 1543 1544 1545 1546 1547 1548 1549 1550 1551 1551 1552 1552 1553 1553
1502 1499 1496 1491 1488 1486 1484 1485 1486 1487 1488 1491 1493 1496 1502 1505 1507 1509 1512 1514 1515 1516 1518 1520 1523 1526 1528 1530 1532 1534 1536 1537 1539 1540 1542 1543 1544 1545 1546 1547 1548 1550 1550 1551 1552 1553 1553 1554 1554
1499 1498 1493 1489 1487 1485 1484 1485 1486 1488 1489 1491 1493 1496 1500 1503 1505 1508 1511 1514 1515 1516 1518 1520 1523 1525 1527 1530 1532 1534 1535 1537 1538 1540 1542 1543 1544 1545 1547 1547 1549 1550 1551 1552 1552 1553 1554 1554 1555
1498 1499 1492 1487 1487 1486 1485 1486 1487 1488 1489 1491 1493 1495 1497 1500 1503 1507 1510 1513 1515 1516 1518 1520 1522 1525 1527 1529 1531 1533 1535 1537 1538 1540 1541 1543 1544 1545 1546 1547 1549 1550 1551 1552 1553 1553 1554 1555 1556
1496 1494 1488 1486 1487 1486 1486 1486 1488 1489 1489 1491 1493 1495 1497 1500 1502 1505 1508 1510 1513 1515 1517 1520 1522 1524 1526 1528 1530 1532 1534 1536 1537 1539 1540 1542 1543 1545 1546 1547 1548 1550 1551 1552 1553 1553 1554 1555 1556
1492 1490 1487 1487 1487 1487 1487 1487 1489 1490 1491 1492 1494 1495 1497 1500 1502 1505 1507 1509 1512 1515 1517 1519 1521 1523 1525 1527 1529 1531 1533 1535 1537 1538 1540 1541 1543 1544 1545 1546 1548 1549 1550 1551 1552 1553 1554 1555 1556
1490 1488 1488 1487 1488 1488 1488 1488 1489 1490 1492 1492 1493 1495 1496 1499 1501 1504 1506 1508 1511 1513 1516 1518 1520 1522 1523 1525 1528 1530 1532 1534 1536 1537 1539 1540 1542 1543 1544 1546 1547 1548 1549 1550 1551 1552 1554 1555 1555
1489 1488 1488 1488 1488 1488 1488 1488 1488 1490 1491 1492 1492 1494 1495 1498 1501 1503 1506 1508 1510 1512 1514 1516 1518 1520 1522 1524 1526 1528 1530 1532 1534 1536 1538 1539 1540 1542 1543 1545 1546 1547 1548 1550 1550 1551 1553 1554 1554
1487 1488 1487 1487 1487 1487 1488 1487 1488 1488 1490 1491 1491 1493 1495 1497 1499 1502 1504 1506 1508 1510 1512 1514 1516 1518 1520 1522 1524 1526 1528 1530 1532 1534 1536 1538 1539 1540 1542 1543 1544 1546 1547 1548 1549 1550 1551 1552 1553
1488 1488 1486 1484 1485 1485 1487 1488 1487 1488 1489 1490 1491 1492 1494 1496 1498 1500 1502 1504 1506 1508 1510 1513 1515 1517 1518 1520 1522 1524 1526 1528 1530 1532 1534 1535 1537 1538 1540 1541 1542 1544 1545 1546 1548 1549 1550 1550 1551
1486 1487 1487 1482 1482 1483 1487 1489 1485 1486 1487 1488 1490 1492 1493 1494 1496 1498 1500 1502 1504 1506 1508 1510 1513 1515 1517 1519 1521 1522 1524 1526 1528 1530 1531 1533 1535 1536 1538 1539 1540 1542 1543 1544 1546 1546 1547 1548 1548
1485 1486 1484 1482 1479 1479 1483 1486 1484 1484 1485 1486 1488 1490 1492 1493 1495 1497 1499 1500 1502 1504 1506 1508 1511 1512 1515 1517 1519 1520 1522 1524 1525 1527 1529 1531 1532 1534 1535 1537 1538 1540 1541 1542 1543 1544 1545 1545 1546
1486 1484 1482 1481 1477 1479 1482 1483 1482 1482 1482 1484 1486 1488 1490 1492 1493 1496 1497 1499 1500 1502 1504 1506 1508 1510 1512 1514 1516 1518 1520 1521 1523 1524 1526 1528 1530 1531 1533 1534 1536 1537 1538 1539 1541 1542 1543 1543 1543
1484 1482 1481 1478 1476 1479 1479 1481 1480 1480 1480 1483 1484 1486 1489 1491 1493 1495 1496 1497 1498 1500 1502 1503 1505 1507 1509 1511 1513 1515 1516 1518 1520 1522 1523 1525 1527 1528 1530 1531 1533 1534 1536 1537 1538 1539 1540 1541 1541
1482 1481 1479 1477 1475 1478 1479 1479 1478 1477 1478 1480 1483 1485 1487 1489 1491 1492 1494 1495 1496 1497 1500 1501 1503 1505 1507 1509 1511 1513 1514 1516 1517 1518 1520 1522 1524 1525 1527 1528 1530 1531 1532 1534 1535 1536 1537 1537 1538
1480 1480 1479 1478 1477 1477 1478 1480 1477 1476 1477 1479 1481 1483 1485 1487 1489 1490 1492 1493 1494 1495 1497 1499 1501 1503 1505 1507 1509 1510 1512 1513 1514 1515 1517 1518 1520 1522 1523 1525 1526 1528 1529 1530 1531 1533 1533 1534 1535
1482 1477 1477 1477 1481 1482 1478 1486 1476 1474 1475 1477 1479 1481 1483 1486 1487 1488 1490 1491 1492 1494 1495 1496 1499 1501 1502 1504 1505 1507 1507 1508 1510 1512 1514 1516 1517 1518 1520 1522 1523 1524 1525 1527 1528 1529 1530 1531 1532
1480 1476 1476 1477 1480 1483 1478 1483 1478 1472 1475 1475 1477 1479 1482 1484 1485 1486 1488 1488 1490 1491 1493 1494 1496 1498 1499 1501 1502 1504 1505 1506 1508 1510 1511 1513 1514 1515 1516 1518 1519 1521 1522 1523 1525 1526 1526 1527 1528
1479 1478 1476 1477 1480 1486 1475 1479 1479 1474 1472 1473 1475 1478 1480 1482 1483 1485 1486 1487 1488 1489 1490 1492 1493 1494 1496 1497 1499 1501 1502 1503 1505 1506 1507 1509 1510 1511 1513 1514 1515 1517 1518 1520 1521 1522 1523 1524 1524
1483 1485 1486 1485 1485 1481 1470 1474 1475 1470 1469 1471 1473 1476 1478 1480 1481 1482 1483 1484 1485 1486 1487 1489 1490 1491 1492 1494 1495 1497 1499 1500 1501 1502 1503 1504 1506 1507 1508 1510 1511 1512 1514 1516 1517 1518 1518 1519 1520
1485 1486 1490 1489 1484 1480 1474 1475 1472 1466 1467 1469 1471 1474 1477 1479 1479 1480 1481 1482 1482 1483 1485 1485 1487 1488 1489 1490 1492 1493 1495 1496 1498 1499 1500 1501 1502 1503 1505 1507 1508 1509 1511 1511 1513 1514 1514 1516 1516
1486 1487 1484 1486 1481 1483 1478 1472 1469 1466 1468 1468 1470 1473 1475 1477 1478 1479 1479 1480 1481 1481 1482 1484 1484 1485 1487 1487 1488 1490 1491 1492 1494 1495 1496 1497 1498 1499 1501 1503 1504 1505 1506 1507 1508 1509 1510 1512 1513
1486 1486 1488 1487 1486 1482 1475 1471 1472 1469 1469 1469 1470 1471 1473 1475 1476 1477 1478 1478 1479 1480 1481 1482 1483 1483 1484 1484 1485 1486 1487 1488 1490 1490 1491 1492 1493 1495 1496 1498 1499 1500 1501 1502 1502 1504 1506 1507 1508
1488 1489 1488 1486 1484 1484 1481 1478 1466 1466 1467 1468 1469 1470 1472 1473 1475 1476 1476 1477 1478 1478 1479 1479 1480 1481 1481 1481 1482 1482 1483 1484 1485 1486 1487 1488 1489 1491 1492 1493 1494 1495 1496 1497 1498 1500 1501 1502 1503
1487 1488 1490 1493 1490 1482 1481 1481 1466 1465 1466 1467 1469 1470 1472 1473 1474 1475 1475 1476 1476 1476 1477 1477 1478 1478 1478 1478 1479 1479 1479 1480 1480 1481 1482 1484 1485 1486 1488 1489 1489 1490 1491 1493 1494 1495 1496 1497 1498